Location: Erraguntapalli
(18.7700°N, 79.7783°E)
Time: 02:54:33
(UTC+00:00)

SWIFT - Pass Details

Date: 15 November 2019
Orbit: 545 x 561 km, 20.6° (Epoch: 05 December)

Event Time Altitude Azimuth Distance (km) Brightness Sun altitude
Exits shadow 00:07:59 - 243° (WSW) 2,272 5.0 -9.8°
Reaches altitude 10° 00:09:09 10° 239° (WSW) 1,830 4.6 -9.5°
Maximum altitude 00:13:16 49° 165° (SSE) 720 3.2 -8.6°
Drops below altitude 10° 00:17:24 10° 89° (E) 1,829 6.4 -7.6°
Sets 00:19:44 0° 84° (E) 2,722 7.3 -7.1°
